Date Time,Air Temp,Sky Temp,Clarity,Light Level,Rain Sensor,Readings
2011-11-09 00:01:24,16.9,7.0,10.0,0.1,3.9,111
2011-11-09 00:06:24,16.9,7.0,10.0,0.1,2.1,112
2011-11-09 00:11:24,16.9,7.5,9.4,0.1,2.0,111
2011-11-09 00:16:24,16.9,7.1,9.8,0.1,2.1,111
2011-11-09 00:21:24,16.9,7.6,9.4,0.1,2.7,112
2011-11-09 00:26:24,17.0,7.7,9.3,0.1,2.5,112
2011-11-09 00:31:24,17.0,7.8,9.2,0.2,2.2,111
2011-11-09 00:36:24,17.0,7.7,9.3,0.2,2.2,111
2011-11-09 00:41:24,17.0,7.7,9.3,0.2,2.3,111
2011-11-09 00:46:24,17.1,7.5,9.6,0.2,2.3,112
2011-11-09 00:51:24,17.2,7.3,9.9,0.3,2.3,111
2011-11-09 00:56:24,17.3,7.5,9.8,0.3,2.3,111
2011-11-09 01:01:24,17.4,7.7,9.7,0.2,2.3,112
2011-11-09 01:06:24,17.5,7.4,10.0,0.2,2.3,111
2011-11-09 01:11:24,17.5,7.8,9.8,0.2,2.4,112
2011-11-09 01:16:24,17.6,7.8,9.8,0.2,2.5,111
2011-11-09 01:21:24,17.7,8.2,9.5,0.2,2.6,112
2011-11-09 01:26:24,17.4,8.4,9.1,0.2,2.6,111
2011-11-09 01:31:24,17.8,7.9,9.9,0.2,2.6,112
2011-11-09 01:36:24,17.8,13.2,4.6,0.1,27.8,111
2011-11-09 01:41:24,17.7,13.1,4.6,0.2,16.2,112
2011-11-09 01:46:24,17.3,12.5,4.8,0.2,8.7,111
2011-11-09 01:51:24,17.2,10.7,6.6,0.2,4.7,112
2011-11-09 01:56:24,17.2,7.8,9.5,0.2,2.3,111
2011-11-09 02:01:24,17.2,6.5,10.7,0.2,2.3,111
2011-11-09 02:06:24,17.3,6.9,10.4,0.1,2.3,111
2011-11-09 02:11:24,17.3,7.1,10.2,0.1,2.3,112
2011-11-09 02:16:24,17.4,7.5,9.9,0.1,2.3,111
2011-11-09 02:21:24,17.4,8.0,9.5,0.1,2.3,111
2011-11-09 02:26:24,17.4,8.2,9.3,0.1,2.3,112
2011-11-09 02:31:24,17.4,8.2,9.3,0.1,2.3,111
2011-11-09 02:36:24,17.5,7.8,9.7,0.1,2.4,112
2011-11-09 02:41:24,17.6,7.5,10.1,0.1,2.5,111
2011-11-09 02:46:24,17.6,8.3,9.3,0.1,2.6,112
2011-11-09 02:51:24,17.7,8.3,9.4,0.1,2.7,111
2011-11-09 02:56:24,17.8,8.0,9.8,0.1,2.5,112
2011-11-09 03:01:24,17.9,8.6,9.3,0.1,2.3,111
2011-11-09 03:06:24,18.0,8.8,9.1,0.1,2.3,111
2011-11-09 03:11:24,18.0,8.4,9.7,0.1,2.3,111
2011-11-09 03:16:24,18.1,7.8,10.3,0.1,2.3,112
2011-11-09 03:21:24,18.1,7.8,10.3,0.1,2.3,111
2011-11-09 03:26:24,18.1,8.7,9.4,0.0,2.3,111
2011-11-09 03:31:24,18.2,9.2,9.0,0.0,2.3,112
2011-11-09 03:36:24,18.3,9.2,9.1,0.0,2.3,111
2011-11-09 03:41:24,18.3,8.4,9.9,0.0,2.3,111
2011-11-09 03:46:24,18.2,8.7,9.6,0.0,2.3,112
2011-11-09 03:51:24,18.3,8.5,9.8,0.1,2.3,111
2011-11-09 03:56:24,18.3,8.4,9.9,0.1,2.3,112
2011-11-09 04:01:24,18.4,8.2,10.2,0.0,2.3,111
2011-11-09 04:06:24,18.5,8.5,9.9,0.0,2.3,112
2011-11-09 04:11:24,18.5,8.1,10.4,0.0,2.3,111
2011-11-09 04:16:24,18.5,8.0,10.5,0.1,2.3,112
2011-11-09 04:21:24,18.5,9.5,9.0,0.0,2.3,111
2011-11-09 04:26:24,18.5,9.2,9.3,0.1,2.3,111
2011-11-09 04:31:24,18.5,8.4,10.2,0.1,2.3,112
2011-11-09 04:36:24,18.6,7.5,11.1,0.1,2.3,111
2011-11-09 04:41:24,18.6,7.1,11.5,0.1,2.3,112
2011-11-09 04:46:24,18.6,7.2,11.5,0.1,2.3,111
2011-11-09 04:51:24,18.6,7.2,11.5,0.1,2.3,112
2011-11-09 04:56:24,18.6,7.0,11.6,0.1,2.3,112
2011-11-09 05:01:24,18.6,6.8,11.7,0.1,2.3,111
2011-11-09 05:06:24,18.5,6.7,11.8,0.1,2.3,111
2011-11-09 05:11:24,18.5,6.5,12.0,0.1,2.3,112
2011-11-09 05:16:24,18.5,6.6,11.8,0.1,2.3,111
2011-11-09 05:21:24,18.4,6.7,11.8,0.1,2.3,111
2011-11-09 05:26:24,18.5,6.5,11.9,0.1,2.3,111
2011-11-09 05:31:24,18.4,6.6,11.8,0.1,2.3,112
2011-11-09 05:36:24,18.5,6.7,11.8,0.1,2.3,111
2011-11-09 05:41:24,18.5,6.1,12.4,0.1,2.3,111
2011-11-09 05:46:24,18.5,5.0,13.5,0.1,2.3,112
2011-11-09 05:51:24,18.4,5.6,12.9,0.1,2.3,112
2011-11-09 05:56:24,18.4,6.2,12.3,0.1,2.3,111
2011-11-09 06:01:24,18.1,6.6,11.5,0.1,2.3,111
2011-11-09 06:06:24,18.4,6.6,11.8,0.1,2.3,111
2011-11-09 06:11:24,18.1,6.3,11.8,0.2,2.3,111
2011-11-09 06:16:24,18.4,5.8,12.6,0.4,2.3,112
2011-11-09 06:21:24,18.4,5.7,12.7,0.7,2.3,112
2011-11-09 06:26:24,18.4,4.2,14.1,1.5,2.3,112
2011-11-09 06:31:24,18.3,5.0,13.3,2.8,2.3,111
2011-11-09 06:36:24,18.3,7.7,10.7,4.7,2.3,111
2011-11-09 06:41:24,18.4,7.9,10.6,7.7,2.3,112
2011-11-09 06:46:24,18.5,7.1,11.4,12.0,2.3,111
2011-11-09 06:51:24,18.5,7.0,11.6,16.9,2.3,112
2011-11-09 06:56:24,18.5,7.2,11.3,21.7,2.3,111
2011-11-09 07:01:24,18.6,8.4,10.1,24.9,2.3,112
2011-11-09 07:06:24,18.6,8.8,9.8,27.1,2.3,111
2011-11-09 07:11:24,18.7,8.6,10.1,28.2,2.2,112
2011-11-09 07:16:24,18.8,8.2,10.5,29.1,1.9,111
2011-11-09 07:21:24,18.8,8.1,10.7,29.7,1.8,112
2011-11-09 07:26:24,18.8,8.7,10.1,29.9,1.8,111
2011-11-09 07:31:24,18.9,9.9,8.9,29.4,1.8,112
2011-11-09 07:36:24,18.9,9.7,9.2,30.1,1.8,111
2011-11-09 07:41:24,18.9,9.2,9.7,31.1,1.8,112
2011-11-09 07:46:24,19.0,8.6,10.4,31.5,1.8,111
2011-11-09 07:51:24,19.1,8.6,10.4,31.8,1.9,112
2011-11-09 07:56:24,19.0,7.9,11.1,32.0,1.9,111
2011-11-09 08:01:24,19.0,7.6,11.4,32.0,2.0,112
2011-11-09 08:06:24,19.1,7.9,11.2,32.0,2.0,112
2011-11-09 08:11:24,19.2,8.8,10.5,31.8,2.1,111
2011-11-09 08:16:24,19.2,9.6,9.6,31.5,2.2,112
2011-11-09 08:21:24,19.3,9.2,10.1,31.8,2.2,111
2011-11-09 08:26:24,19.2,8.8,10.4,32.0,2.3,112
2011-11-09 08:31:24,19.3,8.8,10.5,32.1,2.3,111
2011-11-09 08:36:24,19.5,9.6,9.9,32.1,2.3,111
2011-11-09 08:41:24,19.6,9.0,10.6,32.1,2.3,112
2011-11-09 08:46:24,19.7,9.1,10.6,32.2,2.3,112
2011-11-09 08:51:24,19.6,8.4,11.3,32.3,2.3,111
2011-11-09 08:56:24,19.6,9.7,9.9,32.2,2.5,111
2011-11-09 09:01:24,19.5,10.3,9.3,32.2,2.6,112
2011-11-09 09:06:24,19.5,9.9,9.6,32.1,2.4,112
2011-11-09 09:11:24,19.5,10.1,9.4,32.2,2.3,111
2011-11-09 09:16:24,19.6,10.4,9.1,32.2,2.3,112
2011-11-09 09:21:24,19.6,10.2,9.4,32.3,2.3,112
2011-11-09 09:26:24,19.7,10.3,9.4,32.3,2.3,111
2011-11-09 09:31:24,19.7,10.8,8.9,32.1,2.3,112
2011-11-09 09:36:24,19.7,10.7,9.0,32.2,2.3,111
2011-11-09 09:41:24,19.7,10.2,9.6,32.4,2.3,112
2011-11-09 09:46:24,19.8,10.4,9.4,32.3,2.3,111
2011-11-09 09:51:24,19.8,9.9,9.9,32.3,2.3,112
2011-11-09 09:56:24,19.8,10.4,9.5,32.3,2.3,112
2011-11-09 10:01:24,19.9,10.6,9.3,32.3,2.3,111
2011-11-09 10:06:24,19.9,11.1,8.7,32.2,2.3,112
2011-11-09 10:11:24,19.9,10.8,9.0,32.2,2.3,111
2011-11-09 10:16:24,19.9,10.3,9.6,32.3,2.3,112
2011-11-09 10:21:24,19.9,10.3,9.6,32.3,2.3,112
2011-11-09 10:26:24,20.0,10.3,9.7,32.4,2.3,111
2011-11-09 10:31:24,20.0,10.6,9.4,32.4,2.3,111
2011-11-09 10:36:24,20.1,10.3,9.8,32.4,2.3,112
2011-11-09 10:41:24,20.1,10.6,9.5,32.4,2.3,111
2011-11-09 10:46:24,20.1,10.6,9.6,32.2,2.3,112
2011-11-09 10:51:24,20.1,10.6,9.4,32.2,2.3,112
2011-11-09 10:56:24,20.0,10.7,9.4,32.3,2.3,112
2011-11-09 11:01:24,20.1,10.1,10.0,32.4,2.3,111
2011-11-09 11:06:24,20.1,10.0,10.1,32.4,2.3,111
2011-11-09 11:11:24,20.2,10.4,9.8,32.4,2.2,111
2011-11-09 11:16:25,20.2,10.5,9.7,32.4,2.2,112
2011-11-09 11:21:25,20.2,10.3,9.9,32.4,2.2,112
2011-11-09 11:26:25,20.2,10.2,10.0,32.4,2.3,111
2011-11-09 11:31:25,20.2,9.3,10.9,32.4,2.2,112
2011-11-09 11:36:25,20.3,9.9,10.4,32.4,2.2,111
2011-11-09 11:41:25,20.3,9.2,11.1,32.5,2.3,111
2011-11-09 11:46:25,20.4,9.2,11.2,32.5,2.3,112
2011-11-09 11:51:25,20.5,9.2,11.3,32.5,2.3,111
2011-11-09 11:56:25,20.5,9.2,11.3,32.5,2.3,111
2011-11-09 12:01:25,20.5,8.9,11.6,32.5,2.3,112
2011-11-09 12:06:25,20.6,8.8,11.9,32.5,2.3,112
2011-11-09 12:11:25,20.7,8.9,11.8,32.5,2.3,111
2011-11-09 12:16:25,20.7,8.5,12.2,32.5,2.3,112
2011-11-09 12:21:25,20.8,8.6,12.2,32.5,2.3,111
2011-11-09 12:26:25,20.4,8.8,11.7,32.5,2.3,111
2011-11-09 12:31:25,20.9,9.0,11.9,32.5,2.3,111
2011-11-09 12:36:25,21.0,8.4,12.6,32.5,2.3,112
2011-11-09 12:41:25,21.0,8.2,12.8,32.5,2.3,111
2011-11-09 12:46:25,21.1,7.4,13.7,32.5,2.3,111
2011-11-09 12:51:25,21.2,5.2,16.1,32.6,2.3,112
2011-11-09 12:56:25,22.5,1.8,20.7,32.6,2.3,111
2011-11-09 13:01:25,26.0,-1.4,27.4,32.6,2.3,112
2011-11-09 13:06:25,27.3,-0.8,28.1,32.6,2.2,112
2011-11-09 13:11:25,27.8,-1.4,29.2,32.6,2.3,111
2011-11-09 13:16:25,28.1,-2.1,30.2,32.6,2.3,112
2011-11-09 13:21:25,28.0,-2.2,30.2,32.6,2.3,112
2011-11-09 13:26:25,27.6,-3.5,31.2,32.6,2.3,112
2011-11-09 13:31:25,27.2,-0.1,27.3,32.6,2.3,111
2011-11-09 13:36:25,27.4,0.7,26.7,32.6,2.3,111
2011-11-09 13:41:25,27.5,-0.1,27.6,32.6,2.3,112
2011-11-09 13:46:25,26.7,1.0,25.7,32.5,2.3,111
2011-11-09 13:51:25,26.2,3.1,23.1,32.5,2.3,112
2011-11-09 13:56:25,25.5,4.7,20.8,32.5,2.2,111
2011-11-09 14:01:25,25.2,4.6,20.7,32.5,2.3,112
2011-11-09 14:06:25,23.0,6.5,16.4,32.5,2.3,111
2011-11-09 14:11:25,21.8,5.9,15.9,32.5,2.3,112
2011-11-09 14:16:25,21.2,3.1,18.1,32.5,2.2,111
2011-11-09 14:21:25,21.9,2.2,19.7,32.5,2.2,111
2011-11-09 14:26:25,24.2,0.3,24.0,32.5,2.3,112
2011-11-09 14:31:25,25.2,-0.9,26.1,32.5,2.3,111
2011-11-09 14:36:25,25.5,0.7,24.8,32.6,2.3,112
2011-11-09 14:41:25,26.1,2.7,23.4,32.6,2.3,111
2011-11-09 14:46:25,26.6,-0.1,26.7,32.6,2.2,111
2011-11-09 14:51:25,26.9,-1.1,28.0,32.6,2.3,111
2011-11-09 14:56:25,27.2,-2.7,29.9,32.6,2.3,112
2011-11-09 15:01:25,27.2,-2.8,30.0,32.5,2.3,112
2011-11-09 15:06:25,26.8,-2.2,29.1,32.5,2.3,111
2011-11-09 15:11:25,26.0,-0.8,26.8,32.3,2.2,112
2011-11-09 15:16:25,25.3,3.7,21.5,32.3,2.3,111
2011-11-09 15:21:25,22.4,6.5,15.9,32.2,2.3,112
2011-11-09 15:26:25,20.9,8.7,12.3,32.0,2.3,111
2011-11-09 15:31:25,20.4,6.8,13.6,32.1,2.3,111
2011-11-09 15:36:25,20.1,6.4,13.7,32.0,2.3,112
2011-11-09 15:41:25,20.0,6.6,13.4,32.0,2.3,111
2011-11-09 15:46:25,19.9,7.6,12.4,31.9,2.3,112
2011-11-09 15:51:25,19.9,8.7,11.2,31.8,2.3,111
2011-11-09 15:56:25,19.9,9.5,10.4,31.7,2.3,112
2011-11-09 16:01:25,19.9,9.7,10.3,31.5,2.3,111
2011-11-09 16:06:25,19.9,9.3,10.7,31.3,2.3,112
2011-11-09 16:11:25,19.9,8.9,11.1,31.2,2.3,112
2011-11-09 16:16:25,19.8,7.5,12.4,31.0,2.3,111
2011-11-09 16:21:25,19.8,8.7,11.1,30.3,2.3,111
2011-11-09 16:26:25,19.7,8.0,11.7,29.6,2.3,111
2011-11-09 16:31:25,19.6,7.8,11.8,28.2,2.3,112
2011-11-09 16:36:25,19.5,8.1,11.4,26.1,2.3,111
2011-11-09 16:41:25,19.4,7.6,11.8,23.0,2.4,112
2011-11-09 16:46:25,19.4,6.7,12.8,18.7,2.6,111
2011-11-09 16:51:25,19.4,7.2,12.2,13.6,2.6,111
2011-11-09 16:56:25,19.4,5.7,13.7,10.6,2.6,112
2011-11-09 17:01:25,19.8,1.4,18.5,8.0,2.5,111
2011-11-09 17:06:25,21.8,1.0,20.8,4.8,2.3,112
2011-11-09 17:11:25,20.4,4.8,15.6,2.2,2.5,111
2011-11-09 17:16:25,19.5,1.5,18.0,1.4,2.4,112
2011-11-09 17:21:25,20.9,0.6,20.3,0.8,2.5,111
2011-11-09 17:26:25,19.7,2.2,17.6,0.5,2.4,111
2011-11-09 17:31:25,19.7,1.7,18.0,0.4,2.3,111
2011-11-09 17:36:25,19.5,-0.3,19.9,0.3,2.3,112
2011-11-09 17:41:25,22.3,-1.3,23.6,0.2,2.4,112
2011-11-09 17:46:25,23.3,-0.2,23.5,0.2,2.3,111
2011-11-09 17:51:25,23.7,-0.1,23.8,0.2,2.3,111
2011-11-09 17:56:25,23.9,-1.1,24.9,0.2,2.3,112
2011-11-09 18:01:25,23.9,2.2,21.7,0.2,2.3,111
2011-11-09 18:06:25,21.4,4.8,16.6,0.3,2.3,112
2011-11-09 18:11:25,19.8,3.5,16.3,0.2,2.5,112
2011-11-09 18:16:25,19.3,7.2,12.1,0.3,2.3,111
2011-11-09 18:21:25,19.2,8.7,10.5,0.2,2.3,111
2011-11-09 18:26:25,19.2,8.1,11.0,0.3,2.3,112
2011-11-09 18:31:25,19.1,8.7,10.5,0.2,2.3,111
2011-11-09 18:36:25,19.1,8.6,10.5,0.2,2.4,112
2011-11-09 18:41:25,19.2,8.8,10.4,0.2,2.5,111
2011-11-09 18:46:25,18.9,8.3,10.6,0.2,2.5,112
2011-11-09 18:51:25,19.3,8.7,10.6,0.3,2.6,112
2011-11-09 18:56:25,19.4,8.8,10.5,0.3,2.5,111
2011-11-09 19:01:25,19.4,8.9,10.5,0.3,2.3,111
2011-11-09 19:06:25,19.4,8.7,10.8,0.3,2.3,111
2011-11-09 19:11:25,19.4,8.3,11.1,0.3,2.3,111
2011-11-09 19:16:25,19.4,7.8,11.7,0.4,2.3,112
2011-11-09 19:21:25,19.5,8.5,11.0,0.4,2.3,112
2011-11-09 19:26:25,19.6,8.9,10.7,0.4,2.5,111
2011-11-09 19:31:25,19.7,9.0,10.6,0.4,2.6,112
2011-11-09 19:36:25,19.7,9.1,10.5,0.4,2.6,111
2011-11-09 19:41:25,19.7,9.1,10.6,0.3,2.6,112
2011-11-09 19:46:25,19.7,9.3,10.4,0.3,2.6,111
2011-11-09 19:51:25,19.8,9.3,10.4,0.3,2.5,112
2011-11-09 19:56:25,19.8,9.2,10.6,0.3,2.4,111
2011-11-09 20:01:25,19.8,9.2,10.6,0.3,2.4,111
2011-11-09 20:06:25,19.8,9.1,10.7,0.3,2.4,112
2011-11-09 20:11:25,19.8,9.1,10.7,0.4,2.3,112
2011-11-09 20:16:25,19.8,8.4,11.5,0.5,2.4,111
2011-11-09 20:21:25,19.8,5.7,14.1,0.6,2.5,112
2011-11-09 20:26:25,19.7,4.5,15.2,0.6,2.6,112
2011-11-09 20:31:25,19.6,6.4,13.2,0.6,2.6,111
2011-11-09 20:36:25,19.5,6.5,13.0,0.6,2.5,111
2011-11-09 20:41:25,19.5,7.9,11.6,0.6,2.5,112
2011-11-09 20:46:25,19.6,8.1,11.4,0.5,2.5,111
2011-11-09 20:51:25,19.6,7.4,12.2,0.5,2.6,112
2011-11-09 20:56:25,19.6,8.3,11.3,0.5,2.6,111
2011-11-09 21:01:25,19.6,8.4,11.2,0.5,2.6,112
2011-11-09 21:06:25,19.6,8.6,11.1,0.4,2.6,111
2011-11-09 21:11:25,19.7,8.4,11.3,0.4,2.6,112
2011-11-09 21:16:25,19.6,8.1,11.5,0.5,2.7,111
2011-11-09 21:21:25,19.6,8.6,11.0,0.5,2.6,111
2011-11-09 21:26:25,19.6,8.7,10.9,0.4,2.7,112
2011-11-09 21:31:25,19.7,8.9,10.7,0.4,2.7,111
2011-11-09 21:36:25,19.7,8.8,10.9,0.5,2.7,112
2011-11-09 21:41:25,19.6,8.8,10.8,0.4,2.7,111
2011-11-09 21:46:25,19.7,8.8,10.9,0.4,2.7,112
2011-11-09 21:51:25,19.7,8.8,10.9,0.5,2.7,112
2011-11-09 21:56:25,19.7,7.9,11.7,0.6,2.7,111
2011-11-09 22:01:25,19.6,8.7,10.9,0.6,2.7,112
2011-11-09 22:06:25,19.6,9.0,10.6,0.5,2.7,111
2011-11-09 22:11:25,19.7,9.0,10.7,0.6,2.7,111
2011-11-09 22:16:25,19.3,9.1,10.2,0.4,2.7,112
2011-11-09 22:21:25,19.7,9.1,10.6,0.5,2.7,112
2011-11-09 22:26:25,19.7,9.2,10.5,0.5,2.7,111
2011-11-09 22:31:25,19.7,9.2,10.5,0.5,2.7,112
2011-11-09 22:36:25,19.7,9.3,10.4,0.4,2.7,111
2011-11-09 22:41:25,19.7,9.3,10.4,0.4,2.7,112
2011-11-09 22:46:25,19.8,9.3,10.4,0.5,2.7,112
2011-11-09 22:51:25,19.7,9.5,10.2,0.4,2.7,111
2011-11-09 22:56:25,19.8,9.2,10.6,0.5,2.7,111
2011-11-09 23:01:25,19.7,8.9,10.8,0.6,2.7,111
2011-11-09 23:06:25,19.7,9.4,10.3,0.5,2.7,112
2011-11-09 23:11:25,19.7,9.3,10.4,0.5,2.7,111
2011-11-09 23:16:25,19.7,8.5,11.2,0.6,2.7,112
2011-11-09 23:21:25,19.7,8.9,10.8,0.6,2.7,111
2011-11-09 23:26:25,19.7,8.8,10.8,0.5,2.7,112
2011-11-09 23:31:25,19.7,7.7,12.0,0.6,2.7,111
2011-11-09 23:36:25,19.7,8.9,10.8,0.6,2.6,112
2011-11-09 23:41:25,19.7,6.4,13.3,0.8,2.6,111
2011-11-09 23:46:25,19.6,8.6,11.1,0.5,2.6,112
2011-11-09 23:51:25,19.7,9.5,10.2,0.5,2.6,111
2011-11-09 23:56:25,19.8,9.1,10.7,0.5,2.6,112
